Location: Dover
(39.1580°N, 75.5250°W)
Time: 06:10:06
(UTC-04:00)

ISS - All Passes

Search period start: 30 July 2015 00:00
Search period end: 09 August 2015 00:00
Orbit: 401 x 403 km, 51.6° (Epoch: 30 July)

Date Brightness Start Highest point End Pass type
(mag) Time Alt. Az. Time Alt. Az. Time Alt. Az.
30 Jul - 00:51:15 10° NNW 00:52:22 11° NNW 00:53:28 10° N visible
30 Jul - 02:29:21 10° N 02:29:59 10° N 02:30:39 10° NNE visible
30 Jul - 04:04:27 10° NNW 04:07:17 27° NNE 04:10:09 10° E visible
30 Jul - 05:40:46 10° WNW 05:43:45 33° SW 05:46:44 10° SSE daylight
30 Jul - 20:44:40 10° SSE 20:46:02 12° SE 20:47:29 10° ESE visible
30 Jul - 22:18:54 10° WSW 22:22:07 63° NW 22:25:22 10° NE visible
30 Jul - 23:57:12 10° NW 23:59:06 14° NNW 00:00:57 10° NNE visible
31 Jul - 03:11:45 10° NNW 03:14:07 18° NNE 03:16:31 10° ENE visible
31 Jul - 04:47:37 10° NW 04:50:53 72° SW 04:54:07 10° SE visible
31 Jul - 21:25:58 10° SW 21:29:10 62° SE 21:32:25 10° ENE visible
31 Jul - 23:03:24 10° WNW 23:05:53 20° NNW 23:08:20 10° NNE visible
01 Aug - 02:19:10 10° NNW 02:20:54 14° NNE 02:22:40 10° NE visible
01 Aug - 03:54:41 10° NW 03:57:55 55° NE 04:01:07 10° ESE visible
01 Aug - 05:32:12 10° W 05:34:03 14° SW 05:35:49 10° SSW visible
01 Aug - 20:33:27 10° SSW 20:36:19 29° SE 20:39:13 10° ENE daylight
01 Aug - 22:09:48 10° W 22:12:44 30° NNW 22:15:39 10° NE visible
01 Aug - 23:49:09 10° NNW 23:50:01 11° N 23:50:50 10° N visible
02 Aug - 01:26:42 10° N 01:27:36 11° N 01:28:34 10° NNE visible
02 Aug - 03:01:54 10° NW 03:04:51 31° NNE 03:07:50 10° E visible
02 Aug - 04:38:24 10° WNW 04:41:15 28° SW 04:44:05 10° SSE visible
02 Aug - 19:41:37 10° SSE 19:43:31 15° SE 19:45:29 10° E daylight
02 Aug - 21:16:29 10° WSW 21:19:40 52° NW 21:22:52 10° NE visible
02 Aug - 22:55:01 10° NW 22:56:43 13° NNW 22:58:22 10° NNE visible
03 Aug - 02:09:13 10° NNW 02:11:43 20° NNE 02:14:15 10° ENE night (unlit)
03 Aug - 03:45:11 10° WNW 03:48:24 58° SW 03:51:36 10° SE night (unlit)
03 Aug - 20:23:28 10° SW 20:26:42 77° SE 20:29:58 10° NE daylight
03 Aug - 22:01:09 10° WNW 22:03:29 18° NNW 22:05:47 10° NNE visible
04 Aug - 01:16:36 10° NNW 01:18:31 15° NNE 01:20:28 10° NE visible
04 Aug - 02:52:12 10° NW 02:55:27 67° NE 02:58:42 10° ESE night (unlit)
04 Aug - 04:30:18 10° WSW 04:31:33 12° SW 04:32:40 10° SSW night (unlit)
04 Aug - 19:30:49 10° SSW 19:33:49 36° SE 19:36:52 10° ENE daylight
04 Aug - 21:07:30 10° W 21:10:19 26° NNW 21:13:08 10° NNE visible
04 Aug - 22:47:06 10° NNW 22:47:38 10° N 22:48:09 10° N visible
05 Aug - 00:24:05 10° N 00:25:15 11° NNE 00:26:27 10° NNE visible
05 Aug - 01:59:23 10° NW 02:02:27 36° NNE 02:05:29 10° E night (unlit)
05 Aug - 03:36:05 10° WNW 03:38:45 23° SW 03:41:23 10° S night (unlit)
05 Aug - 18:38:45 10° S 18:41:00 18° SE 18:43:20 10° E daylight
05 Aug - 20:14:06 10° WSW 20:17:14 44° NNW 20:20:22 10° NE daylight
05 Aug - 21:52:51 10° NW 21:54:20 12° NNW 21:55:48 10° NNE visible
06 Aug - 01:06:41 10° NNW 01:09:19 22° NNE 01:12:00 10° E visible
06 Aug - 02:42:46 10° WNW 02:45:55 47° SW 02:49:03 10° SSE night (unlit)
06 Aug - 19:21:00 10° SW 19:24:14 87° NW 19:27:31 10° NE daylight
06 Aug - 20:58:55 10° WNW 21:01:06 16° NNW 21:03:14 10° NNE visible
07 Aug - 00:14:02 10° NNW 00:16:08 16° NNE 00:18:16 10° ENE visible
07 Aug - 01:49:44 10° NW 01:53:01 82° NE 01:56:16 10° SE night (unlit)
07 Aug - 18:28:14 10° SSW 18:31:20 44° SE 18:34:28 10° ENE daylight
07 Aug - 20:05:12 10° W 20:07:55 23° NNW 20:10:36 10° NNE daylight
07 Aug - 23:21:30 10° NNW 23:22:53 12° NNE 23:24:18 10° NE visible
08 Aug - 00:56:53 10° NW 01:00:01 42° NNE 01:03:08 10° ESE visible
08 Aug - 02:33:50 10° W 02:36:16 19° SW 02:38:38 10° S night (unlit)
08 Aug - 17:35:59 10° S 17:38:31 22° SE 17:41:06 10° E daylight
08 Aug - 19:11:45 10° WSW 19:14:48 37° NNW 19:17:52 10° NE daylight
08 Aug - 20:50:43 10° NW 20:51:59 12° NNW 20:53:13 10° N visible
08 Aug - 22:29:13 10° N 22:29:35 10° N 22:29:59 10° NNE visible
